Find Starlink 33941

NORAD ID: 63765 Int'l Des: 2025-089 Owner: SPXS Country: US Constellation: starlink operational
LEOCIRCULAR

实时位置

正在加载3D地球...

关于 Starlink 33941

正在加载描述...

即将过境

Passes for default location (London). Set your location on the main map for personalized predictions.

高度历史

Loading altitude history...

两行轨道根数

1 63765U 25089Q 26127.26202195 .00021437 00000-0 78625-3 0 9994
2 63765 43.0012 74.6059 0001420 269.6496 90.4193 15.27579542 57903
Epoch: May 7, 2026 • Age: 24 hours

当前状态

高度 485.2 km
速度 7.63 km/s
星下点 34.65°N, 120.14°W
发射日期 Apr 29, 2025
运行时间 1 years
类型 internet

技术详情

分类 Payload
质量 575.00 kg
干质量 530.00 kg
总质量 575.00 kg
长度 0.30 m
直径 4.10 m
跨度 29.00 m
形状 Box + pan
制造商 SPXS
平台类型 Starlink V2MO
阶段状态 In Orbit
所有者/国家 SPXS/US

Most Searched